Regional Weather Roundup
Issued by NWS

Home | Current Version | Previous Version | Text Only | Print | Product List | Glossary On
Versions: 1 2 3 4 5 6 7 8 9 10 11 12 13 14 15 16 17 18 19 20 21 22 23 24 25 26 27 28 29 30 31 32 33 34 35 36 37 38 39 40 41 42 43 44 45 46 47 48 49 50
000
ASUS45 KPSR 281410
RWRAZ

ARIZONA HOURLY REGIONAL WEATHER ROUNDUP
NATIONAL WEATHER SERVICE PHOENIX AZ
700 AM MST TUE FEB 28 2017

NOTE: FAIR INDICATES FEW OR NO CLOUDS BELOW 12,000 FEET WITH NO
SIGNIFICANT WEATHER AND/OR OBSTRUCTIONS TO VISIBILITY.

AZZ001>003-036-281500-
NORTHWEST ARIZONA

CITY           SKY/WX    TMP DP  RH WIND       PRES   REMARKS
BULLHEAD CITY  CLEAR     52  43  71 W5        29.87R
KINGMAN        CLOUDY    43  38  82 SW7       29.85R
$$

AZZ004>008-015-016-018-281500-
NORTH CENTRAL ARIZONA

CITY           SKY/WX    TMP DP  RH WIND       PRES   REMARKS
GRAND CANYON   CLOUDY    30  30 100 VRB5      29.81R WCI  25
WILLIAMS       SNOW      30  30 100 W7        29.81R VSB 1/4 WCI  23
PRESCOTT       LGT RAIN  34  34 100 SW3       29.84R
FLAGSTAFF      LGT SNOW  30  29  96 SW9       29.80R FOG     WCI  22
PAYSON         HVY RAIN  37  37 100 W13G22    29.87R WCI  29
PAGE           LGT RAIN  39  31  72 CALM      29.77R
$$

AZZ009>014-017-281500-
NORTHEAST ARIZONA

CITY           SKY/WX    TMP DP  RH WIND       PRES   REMARKS
WINSLOW        LGT RAIN  39  37  92 W14G21    29.82R WCI  31
SAINT JOHNS    CLOUDY    41  28  60 SW36G53   29.74S
WINDOW ROCK    LGT SNOW  34  31  88 SW13G20   29.78S VSB 3/4 WCI  25
SHOW LOW       LGT SNOW  32  27  80 S40G59    29.82R WCI  16
$$

AZZ023-281500-
GREATER PHOENIX AREA

CITY           SKY/WX    TMP DP  RH WIND       PRES   REMARKS
PHOENIX        LGT RAIN  54  51  90 VRB3      29.85R
BUCKEYE        CLOUDY    52  52 100 NW8       29.89R
GLENDALE       RAIN      54  54 100 CALM      29.87R
LUKE AFB       LGT RAIN  54 N/A N/A W5        29.86R
DEER VALLEY    HVY RAIN  52  52 100 SW5       29.86R FOG
SCOTTSDALE     RAIN      52  51  97 CALM      29.89R FOG
MESA-FALCON    CLOUDY   N/A N/A N/A SW7       29.84
MESA-GATEWAY   CLOUDY    54  48  82 S7        29.86R
CHANDLER       CLOUDY    55  48  76 S7        29.86R
$$

AZZ027-028-281500-
SOUTHWEST MARICOPA COUNTY AND PINAL COUNTY

CITY           SKY/WX    TMP DP  RH WIND       PRES   REMARKS
CASA GRANDE    NOT AVBL
$$

AZZ503-504-507>509-281500-
SOUTHEAST ARIZONA

CITY           SKY/WX    TMP DP  RH WIND       PRES   REMARKS
TUCSON         CLOUDY    60  30  32 SW13G22   29.90R
DAVIS-MONTHAN  CLOUDY    58  30  34 SW14      29.90R
NOGALES        CLOUDY    52  28  39 S12       29.95R
SIERRA VISTA   CLOUDY    53  26  36 SW20G31   29.94R
DOUGLAS        CLOUDY    49  28  44 CALM      29.94S
SAFFORD        CLOUDY    54  30  40 W5        29.84S
$$

AZZ020-021-025-026-031-281500-
SOUTHWEST ARIZONA

CITY           SKY/WX    TMP DP  RH WIND       PRES   REMARKS
YUMA           NOT AVBL
$$

CAZ031-033-041-043-047-048-061-281500-
SOUTHERN CALIFORNIA

CITY           SKY/WX    TMP DP  RH WIND       PRES   REMARKS
DOWNTOWN L.A.  CLEAR     50  34  54 CALM      29.97R
L.A. AIRPORT   PTCLDY    51  33  50 N6        29.97R
SAN DIEGO      MOCLDY    54  45  71 W12       30.02R
BURBANK        CLEAR     47  30  51 N8        29.96R
ONTARIO        PTCLDY    44  43  96 CALM      29.96R
RIVERSIDE      PTCLDY    42  42 100 CALM      29.97R FOG
PALM SPRINGS   PTCLDY    49  49 100 SW3       29.91R
IMPERIAL       PTCLDY    53  46  77 W10       29.90R
BLYTHE         MOCLDY    51  50  96 CALM      29.89R
NEEDLES        PTCLDY    52  44  74 SW8       29.87R
$$

NVZ020-UTZ003-281500-
SOUTHERN NEVADA-UTAH

CITY           SKY/WX    TMP DP  RH WIND       PRES   REMARKS
LAS VEGAS      MOCLDY    48  30  49 NW7       29.85R
SALT LAKE CITY MOCLDY    23  18  81 SE9       29.85R WCI  13
$$

NMZ009-TXZ055-281500-
NEW MEXICO-WEST TEXAS

CITY           SKY/WX    TMP DP  RH WIND       PRES   REMARKS
ALBUQUERQUE    CLOUDY    46  28  49 S13       29.81F
EL PASO        MOCLDY    52  16  24 S7        29.94S
$$


........................KEY........................
SKY/WX - SKY CONDITION/WEATHER
TMP    - TEMPERATURE IN FAHRENHEIT
DP     - DEW POINT IN FAHRENHEIT
RH     - RELATIVE HUMIDITY IN PERCENT
WIND   - DIRECTION AND SPEED IN MILES PER HOUR (MPH)
VRB    - VARIABLE WIND DIRECTION
PRES   - MEAN SEA LEVEL PRESSURE IN INCHES OF MERCURY
         F - FALLING PRESSURE   R - RISING PRESSURE
         S - STEADY PRESSURE
VSB    - VISIBILITY IN MILES
HX     - HEAT INDEX IN FAHRENHEIT
WCI    - WIND CHILL INDEX IN FAHRENHEIT
TC     - TEMPERATURE IN CELSIUS WHICH IS ALSO KNOWN AS
         TEMPERATURE IN CENTIGRADE
AFB    - AIR FORCE BASE
         LUKE AFB IS LUKE AIR FORCE BASE
         DAVIS-MONTHAN IS DAVIS-MONTHAN AIR FORCE BASE
NAS    - NAVAL AIR STATION
         EL CENTRO NAS IS EL CENTRO NAVAL AIR STATION
N/A    - NOT AVAILABLE




USA.gov is the U.S. government's official web portal to all federal, state and local government web resources and services.